EN

Hourly Weather Abomey

Today, 27 November, Friday

Time Temperature Precipitation Wind Pressure Humidity
00:00 +26°C° 0 mm 3 mps 738 mmHg 82%
01:00 +26°C° 0 mm 2 mps 737 mmHg 83%
02:00 +26°C° 0 mm 2 mps 737 mmHg 84%
03:00 +26°C° 0 mm 2 mps 737 mmHg 86%
04:00 +25°C° 0 mm 2 mps 737 mmHg 87%
05:00 +25°C° 0 mm 1 mps 737 mmHg 88%
06:00 +25°C° 0 mm 1 mps 737 mmHg 90%
07:00 +27°C° 0 mm 1 mps 738 mmHg 81%
08:00 +29°C° 0 mm 2 mps 738 mmHg 71%
09:00 +31°C° 0 mm 3 mps 739 mmHg 62%
10:00 +34°C° 0 mm 2 mps 738 mmHg 55%
11:00 +35°C° 0 mm 2 mps 738 mmHg 48%
12:00 +37°C° 0 mm 2 mps 737 mmHg 41%
13:00 +36°C° 0 mm 2 mps 737 mmHg 43%
14:00 +36°C° 0 mm 2 mps 736 mmHg 45%
15:00 +35°C° 0 mm 3 mps 736 mmHg 46%
16:00 +34°C° 0 mm 3 mps 736 mmHg 54%
17:00 +31°C° 0 mm 3 mps 737 mmHg 61%
18:00 +29°C° 0 mm 3 mps 737 mmHg 68%
19:00 +28°C° 0.2 mm 3 mps 738 mmHg 72%
20:00 +28°C° 0.2 mm 3 mps 738 mmHg 76%
21:00 +27°C° 0.2 mm 3 mps 739 mmHg 80%
22:00 +27°C° 0.1 mm 3 mps 739 mmHg 82%
23:00 +26°C° 0.1 mm 3 mps 739 mmHg 84%

Tomorrow, 28 November, Saturday

Time Temperature Precipitation Wind Pressure Humidity
00:00 +26°C° 0.1 mm 3 mps 738 mmHg 86%
01:00 +26°C° 0 mm 3 mps 738 mmHg 87%
02:00 +26°C° 0 mm 3 mps 738 mmHg 89%
03:00 +25°C° 0 mm 2 mps 738 mmHg 90%
04:00 +25°C° 0 mm 2 mps 738 mmHg 92%
05:00 +25°C° 0 mm 1 mps 738 mmHg 93%
06:00 +25°C° 0 mm 1 mps 739 mmHg 95%
07:00 +27°C° 0 mm 1 mps 739 mmHg 85%
08:00 +29°C° 0 mm 2 mps 739 mmHg 74%
09:00 +31°C° 0 mm 3 mps 740 mmHg 64%
10:00 +32°C° 0.1 mm 2 mps 739 mmHg 58%
11:00 +35°C° 0.1 mm 2 mps 739 mmHg 51%
12:00 +36°C° 0.1 mm 2 mps 738 mmHg 45%
13:00 +36°C° 0.4 mm 2 mps 738 mmHg 48%
14:00 +35°C° 0.4 mm 3 mps 737 mmHg 51%
15:00 +34°C° 0.4 mm 3 mps 737 mmHg 54%
16:00 +31°C° 0.4 mm 3 mps 737 mmHg 61%
17:00 +30°C° 0.4 mm 2 mps 737 mmHg 68%
18:00 +28°C° 0.4 mm 2 mps 737 mmHg 74%
19:00 +28°C° 0.1 mm 2 mps 738 mmHg 78%
20:00 +27°C° 0.1 mm 2 mps 738 mmHg 81%
21:00 +27°C° 0.1 mm 1 mps 739 mmHg 84%
22:00 +26°C° 0 mm 2 mps 739 mmHg 86%
23:00 +26°C° 0 mm 2 mps 738 mmHg 87%

Day after tomorrow, 29 November, Sunday

Time Temperature Precipitation Wind Pressure Humidity
00:00 +26°C° 0 mm 2 mps 738 mmHg 89%
01:00 +25°C° 0 mm 2 mps 738 mmHg 90%
02:00 +25°C° 0 mm 2 mps 738 mmHg 91%
03:00 +25°C° 0 mm 2 mps 738 mmHg 93%
04:00 +25°C° 0 mm 2 mps 738 mmHg 94%
05:00 +25°C° 0 mm 2 mps 738 mmHg 95%
06:00 +25°C° 0 mm 1 mps 738 mmHg 96%
07:00 +26°C° 0 mm 2 mps 738 mmHg 87%
08:00 +28°C° 0 mm 2 mps 739 mmHg 77%
09:00 +30°C° 0 mm 2 mps 739 mmHg 68%
10:00 +32°C° 0 mm 2 mps 739 mmHg 59%
11:00 +34°C° 0 mm 1 mps 738 mmHg 51%
12:00 +37°C° 0 mm 1 mps 738 mmHg 43%
13:00 +36°C° 0 mm 1 mps 737 mmHg 43%
14:00 +35°C° 0 mm 1 mps 737 mmHg 44%
15:00 +36°C° 0 mm 2 mps 736 mmHg 44%
16:00 +34°C° 0.1 mm 2 mps 736 mmHg 53%
17:00 +31°C° 0.1 mm 2 mps 736 mmHg 61%
18:00 +29°C° 0.1 mm 3 mps 736 mmHg 70%
19:00 +28°C° 0 mm 3 mps 737 mmHg 75%
20:00 +28°C° 0 mm 3 mps 737 mmHg 79%
21:00 +27°C° 0 mm 3 mps 738 mmHg 84%
22:00 +26°C° 0 mm 3 mps 737 mmHg 86%
23:00 +26°C° 0 mm 3 mps 737 mmHg 87%

30 November, Monday

Time Temperature Precipitation Wind Pressure Humidity
00:00 +26°C° 0 mm 3 mps 737 mmHg 89%
01:00 +26°C° 0 mm 2 mps 737 mmHg 90%
02:00 +25°C° 0 mm 1 mps 737 mmHg 92%
03:00 +25°C° 0 mm 1 mps 737 mmHg 94%
04:00 +25°C° 0 mm 1 mps 737 mmHg 94%
05:00 +25°C° 0 mm 1 mps 737 mmHg 94%
06:00 +25°C° 0 mm 1 mps 738 mmHg 93%
07:00 +27°C° 0 mm 1 mps 738 mmHg 85%
08:00 +28°C° 0 mm 1 mps 739 mmHg 77%
09:00 +30°C° 0 mm 2 mps 739 mmHg 69%
10:00 +31°C° 0 mm 1 mps 739 mmHg 64%
11:00 +32°C° 0 mm 1 mps 739 mmHg 59%
12:00 +33°C° 0 mm 1 mps 738 mmHg 54%
13:00 +34°C° 0 mm 1 mps 738 mmHg 51%
14:00 +35°C° 0 mm 2 mps 737 mmHg 48%
15:00 +35°C° 0 mm 2 mps 737 mmHg 45%
16:00 +34°C° 0 mm 2 mps 737 mmHg 52%
17:00 +31°C° 0 mm 2 mps 737 mmHg 59%
18:00 +30°C° 0 mm 3 mps 737 mmHg 65%
19:00 +29°C° 0 mm 3 mps 738 mmHg 70%
20:00 +28°C° 0 mm 3 mps 738 mmHg 75%
21:00 +27°C° 0 mm 3 mps 738 mmHg 80%
22:00 +27°C° 0 mm 3 mps 738 mmHg 82%
23:00 +26°C° 0 mm 2 mps 738 mmHg 84%

1 December, Tuesday

Time Temperature Precipitation Wind Pressure Humidity
00:00 +26°C° 0 mm 2 mps 738 mmHg 87%
01:00 +25°C° 0 mm 1 mps 738 mmHg 88%
02:00 +25°C° 0 mm 1 mps 738 mmHg 90%
03:00 +25°C° 0 mm 1 mps 738 mmHg 91%
04:00 +25°C° 0 mm 1 mps 738 mmHg 93%
05:00 +24°C° 0 mm 1 mps 738 mmHg 94%
06:00 +24°C° 0 mm 1 mps 738 mmHg 95%
07:00 +26°C° 0 mm 1 mps 739 mmHg 85%
08:00 +28°C° 0 mm 1 mps 739 mmHg 75%
09:00 +30°C° 0 mm 2 mps 740 mmHg 65%
10:00 +32°C° 0 mm 2 mps 739 mmHg 59%
11:00 +34°C° 0 mm 2 mps 739 mmHg 53%
12:00 +35°C° 0 mm 2 mps 739 mmHg 47%
13:00 +35°C° 0 mm 2 mps 738 mmHg 46%
14:00 +35°C° 0 mm 3 mps 737 mmHg 46%
15:00 +35°C° 0 mm 3 mps 737 mmHg 45%
16:00 +34°C° 0 mm 3 mps 737 mmHg 52%
17:00 +31°C° 0 mm 3 mps 737 mmHg 58%
18:00 +30°C° 0 mm 3 mps 737 mmHg 65%
19:00 +29°C° 0 mm 3 mps 738 mmHg 69%
20:00 +28°C° 0 mm 3 mps 738 mmHg 73%
21:00 +27°C° 0 mm 3 mps 739 mmHg 77%
22:00 +27°C° 0 mm 3 mps 739 mmHg 80%
23:00 +26°C° 0 mm 3 mps 739 mmHg 82%

2 December, Wednesday

Time Temperature Precipitation Wind Pressure Humidity
00:00 +26°C° 0 mm 2 mps 738 mmHg 85%
01:00 +26°C° 0 mm 2 mps 738 mmHg 87%
02:00 +25°C° 0 mm 2 mps 738 mmHg 89%
03:00 +25°C° 0 mm 2 mps 738 mmHg 91%
04:00 +25°C° 0 mm 2 mps 738 mmHg 92%
05:00 +24°C° 0 mm 1 mps 738 mmHg 94%
06:00 +22°C° 0 mm 0 mps 738 mmHg 96%
07:00 +26°C° 0 mm 1 mps 738 mmHg 87%
08:00 +28°C° 0 mm 2 mps 739 mmHg 77%
09:00 +29°C° 0 mm 2 mps 739 mmHg 68%
10:00 +31°C° 0 mm 2 mps 739 mmHg 62%
11:00 +32°C° 0 mm 2 mps 738 mmHg 55%
12:00 +35°C° 0 mm 2 mps 738 mmHg 49%
13:00 +35°C° 0 mm 2 mps 737 mmHg 47%
14:00 +35°C° 0 mm 2 mps 737 mmHg 45%
15:00 +36°C° 0 mm 3 mps 736 mmHg 43%
16:00 +34°C° 0 mm 3 mps 736 mmHg 50%
17:00 +31°C° 0 mm 3 mps 736 mmHg 57%
18:00 +30°C° 0 mm 3 mps 737 mmHg 64%
19:00 +29°C° 0 mm 3 mps 737 mmHg 68%
20:00 +28°C° 0 mm 4 mps 738 mmHg 72%
21:00 +27°C° 0 mm 4 mps 738 mmHg 77%
22:00 +27°C° 0 mm 3 mps 738 mmHg 79%
23:00 +26°C° 0 mm 3 mps 738 mmHg 82%
Show more